Time,TemperatureF,DewpointF,PressureIn,WindDirection,WindDirectionDegrees,WindSpeedMPH,WindSpeedGustMPH,Humidity,HourlyPrecipIn,Conditions,Clouds,dailyrainin,SoftwareType,DateUTC
2013-03-16 00:01:00,50.0,47.0,30.33,SSE,158,0.0,0.0,89,0.00,,,0.00,,2013-03-16 07:01:00,
2013-03-16 00:12:00,50.0,47.0,30.33,SSE,158,0.0,0.0,89,0.00,,,0.00,,2013-03-16 07:12:00,
2013-03-16 00:22:00,50.0,47.0,30.33,SSE,158,0.0,0.0,89,0.00,,,0.00,,2013-03-16 07:22:00,
2013-03-16 00:32:00,50.0,47.0,30.33,SSE,158,0.0,0.0,90,0.00,,,0.00,,2013-03-16 07:32:00,
2013-03-16 00:42:00,50.0,47.0,30.33,SSE,158,0.0,0.0,90,0.00,,,0.00,,2013-03-16 07:42:00,
2013-03-16 00:52:00,50.0,47.0,30.32,SSE,158,0.0,0.0,90,0.00,,,0.00,,2013-03-16 07:52:00,
2013-03-16 01:02:00,50.0,47.0,30.32,SSE,158,0.0,0.0,90,0.00,,,0.00,,2013-03-16 08:02:00,
2013-03-16 01:12:00,50.0,47.0,30.32,SSE,158,0.0,0.0,90,0.00,,,0.00,,2013-03-16 08:12:00,
2013-03-16 01:22:00,50.0,47.0,30.32,SSE,158,0.0,0.0,90,0.00,,,0.00,,2013-03-16 08:22:00,
2013-03-16 01:32:00,50.0,47.0,30.32,SSE,158,0.0,1.0,90,0.00,,,0.00,,2013-03-16 08:32:00,
2013-03-16 01:42:00,50.0,47.0,30.32,SSE,158,0.0,1.0,90,0.00,,,0.00,,2013-03-16 08:42:00,
2013-03-16 01:52:00,50.0,47.0,30.32,SSE,158,0.0,1.0,90,0.00,,,0.00,,2013-03-16 08:52:00,
2013-03-16 02:01:00,49.0,46.0,30.33,SSE,158,0.0,1.0,90,0.00,,,0.00,,2013-03-16 09:01:00,
2013-03-16 02:12:00,49.0,46.0,30.33,SSE,158,0.0,1.0,90,0.00,,,0.00,,2013-03-16 09:12:00,
2013-03-16 02:22:00,49.0,46.0,30.33,SSE,158,0.0,1.0,90,0.00,,,0.00,,2013-03-16 09:22:00,
2013-03-16 02:32:00,49.0,46.0,30.33,SSE,158,0.0,1.0,90,0.00,,,0.00,,2013-03-16 09:32:00,
2013-03-16 02:42:00,49.0,46.0,30.33,SSE,158,0.0,1.0,90,0.00,,,0.00,,2013-03-16 09:42:00,
2013-03-16 02:53:00,49.0,46.0,30.33,SSE,158,0.0,1.0,90,0.00,,,0.00,,2013-03-16 09:53:00,
2013-03-16 03:03:00,49.0,46.0,30.33,SSE,158,0.0,0.0,91,0.00,,,0.00,,2013-03-16 10:03:00,
2013-03-16 03:12:00,49.0,46.0,30.33,SSE,158,0.0,0.0,91,0.00,,,0.00,,2013-03-16 10:12:00,
2013-03-16 03:22:00,49.0,46.0,30.33,SSE,158,0.0,0.0,91,0.00,,,0.00,,2013-03-16 10:22:00,
2013-03-16 03:32:00,49.0,46.0,30.32,SSE,158,0.0,0.0,91,0.00,,,0.00,,2013-03-16 10:32:00,
2013-03-16 03:42:00,49.0,46.0,30.32,SSE,158,0.0,0.0,91,0.00,,,0.00,,2013-03-16 10:42:00,
2013-03-16 03:52:00,49.0,46.0,30.32,SSE,158,0.0,0.0,91,0.00,,,0.00,,2013-03-16 10:52:00,
2013-03-16 04:02:00,49.0,46.0,30.32,South,170,0.0,2.0,91,0.00,,,0.00,,2013-03-16 11:02:00,
2013-03-16 04:12:00,49.0,46.0,30.32,South,170,0.0,2.0,91,0.00,,,0.00,,2013-03-16 11:12:00,
2013-03-16 04:22:00,49.0,46.0,30.32,South,170,0.0,2.0,91,0.00,,,0.00,,2013-03-16 11:22:00,
2013-03-16 04:32:00,49.0,46.0,30.32,South,170,0.0,0.0,90,0.00,,,0.00,,2013-03-16 11:32:00,
2013-03-16 04:43:00,49.0,46.0,30.32,South,170,0.0,0.0,90,0.00,,,0.00,,2013-03-16 11:43:00,
2013-03-16 04:52:00,49.0,46.0,30.32,South,170,0.0,0.0,90,0.00,,,0.00,,2013-03-16 11:52:00,
2013-03-16 05:01:00,49.0,46.0,30.32,South,169,0.0,0.0,91,0.00,,,0.00,,2013-03-16 12:01:00,
2013-03-16 05:12:00,49.0,46.0,30.32,South,169,0.0,0.0,91,0.00,,,0.00,,2013-03-16 12:12:00,
2013-03-16 05:22:00,49.0,46.0,30.32,South,169,0.0,0.0,91,0.00,,,0.00,,2013-03-16 12:22:00,
2013-03-16 05:32:00,49.0,46.0,30.32,South,170,0.0,0.0,91,0.01,,,0.01,,2013-03-16 12:32:00,
2013-03-16 05:42:00,49.0,46.0,30.32,South,170,0.0,0.0,91,0.01,,,0.01,,2013-03-16 12:42:00,
2013-03-16 05:52:00,49.0,46.0,30.32,South,170,0.0,0.0,91,0.01,,,0.01,,2013-03-16 12:52:00,
2013-03-16 06:02:00,49.0,47.0,30.30,South,169,0.0,0.0,92,0.01,,,0.01,,2013-03-16 13:02:00,
2013-03-16 06:12:00,49.0,47.0,30.30,South,169,0.0,0.0,92,0.01,,,0.01,,2013-03-16 13:12:00,
2013-03-16 06:22:00,49.0,47.0,30.30,South,169,0.0,0.0,92,0.01,,,0.01,,2013-03-16 13:22:00,
2013-03-16 06:32:00,49.0,47.0,30.28,South,169,0.0,1.0,92,0.00,,,0.01,,2013-03-16 13:32:00,
2013-03-16 06:42:00,49.0,47.0,30.28,South,169,0.0,1.0,92,0.00,,,0.01,,2013-03-16 13:42:00,
2013-03-16 06:53:00,49.0,47.0,30.28,South,169,0.0,1.0,92,0.00,,,0.01,,2013-03-16 13:53:00,
2013-03-16 07:02:00,49.0,47.0,30.28,South,169,0.0,1.0,92,0.00,,,0.01,,2013-03-16 14:02:00,
2013-03-16 07:12:00,49.0,47.0,30.28,South,169,0.0,1.0,92,0.00,,,0.01,,2013-03-16 14:12:00,
2013-03-16 07:22:00,49.0,47.0,30.28,South,169,0.0,1.0,92,0.00,,,0.01,,2013-03-16 14:22:00,
2013-03-16 07:32:00,49.0,47.0,30.29,South,169,0.0,1.0,92,0.00,,,0.01,,2013-03-16 14:32:00,
2013-03-16 07:42:00,49.0,47.0,30.29,South,169,0.0,1.0,92,0.00,,,0.01,,2013-03-16 14:42:00,
2013-03-16 07:52:00,49.0,47.0,30.29,South,169,0.0,1.0,92,0.00,,,0.01,,2013-03-16 14:52:00,
2013-03-16 08:02:00,49.0,47.0,30.30,South,169,0.0,1.0,92,0.00,,,0.01,,2013-03-16 15:02:00,
2013-03-16 08:12:00,49.0,47.0,30.30,South,169,0.0,1.0,92,0.00,,,0.01,,2013-03-16 15:12:00,
2013-03-16 08:22:00,49.0,47.0,30.30,South,169,0.0,1.0,92,0.00,,,0.01,,2013-03-16 15:22:00,
2013-03-16 08:33:00,49.0,47.0,30.30,South,169,0.0,1.0,92,0.00,,,0.01,,2013-03-16 15:33:00,
2013-03-16 08:43:00,49.0,47.0,30.30,South,169,0.0,1.0,92,0.00,,,0.01,,2013-03-16 15:43:00,
2013-03-16 08:53:00,49.0,47.0,30.30,South,169,0.0,1.0,92,0.00,,,0.01,,2013-03-16 15:53:00,
2013-03-16 09:02:00,49.0,47.0,30.30,SSE,151,0.0,4.0,92,0.00,,,0.01,,2013-03-16 16:02:00,
2013-03-16 09:12:00,49.0,47.0,30.30,SSE,151,0.0,4.0,92,0.00,,,0.01,,2013-03-16 16:12:00,
2013-03-16 09:22:00,49.0,47.0,30.30,SSE,151,0.0,4.0,92,0.00,,,0.01,,2013-03-16 16:22:00,
2013-03-16 09:33:00,49.0,47.0,30.31,SSE,151,0.0,1.0,92,0.00,,,0.01,,2013-03-16 16:33:00,
2013-03-16 09:43:00,49.0,47.0,30.31,SSE,151,0.0,1.0,92,0.00,,,0.01,,2013-03-16 16:43:00,
2013-03-16 09:53:00,49.0,47.0,30.31,SSE,151,0.0,1.0,92,0.00,,,0.01,,2013-03-16 16:53:00,
2013-03-16 10:02:00,50.0,47.0,30.30,SSW,206,1.0,1.0,91,0.01,,,0.02,,2013-03-16 17:02:00,
2013-03-16 10:12:00,50.0,47.0,30.30,SSW,206,1.0,1.0,91,0.01,,,0.02,,2013-03-16 17:12:00,
2013-03-16 10:22:00,50.0,47.0,30.30,SSW,206,1.0,1.0,91,0.01,,,0.02,,2013-03-16 17:22:00,
2013-03-16 10:32:00,50.0,47.0,30.30,SSW,205,0.0,0.0,91,0.01,,,0.02,,2013-03-16 17:32:00,
2013-03-16 10:43:00,50.0,47.0,30.30,SSW,205,0.0,0.0,91,0.01,,,0.02,,2013-03-16 17:43:00,
2013-03-16 10:53:00,50.0,47.0,30.30,SSW,205,0.0,0.0,91,0.01,,,0.02,,2013-03-16 17:53:00,
2013-03-16 11:02:00,50.0,47.0,30.30,SSW,205,0.0,0.0,91,0.01,,,0.02,,2013-03-16 18:02:00,
2013-03-16 11:33:00,52.0,49.0,30.30,SSW,200,1.0,1.0,88,-99.99,,,-99.99,,2013-03-16 18:33:00,
2013-03-16 11:43:00,52.0,49.0,30.30,SSW,200,1.0,1.0,88,-99.99,,,-99.99,,2013-03-16 18:43:00,
2013-03-16 11:53:00,52.0,49.0,30.30,SSW,200,1.0,1.0,88,-99.99,,,-99.99,,2013-03-16 18:53:00,
2013-03-16 12:01:00,51.0,47.0,30.30,SSW,200,1.0,3.0,87,-99.99,,,-99.99,,2013-03-16 19:01:00,
2013-03-16 12:12:00,51.0,47.0,30.30,SSW,200,1.0,3.0,87,-99.99,,,-99.99,,2013-03-16 19:12:00,
2013-03-16 12:22:00,51.0,47.0,30.30,SSW,200,1.0,3.0,87,-99.99,,,-99.99,,2013-03-16 19:22:00,
2013-03-16 12:32:00,51.0,47.0,30.31,SSW,201,0.0,2.0,87,0.04,,,-99.99,,2013-03-16 19:32:00,
2013-03-16 12:42:00,51.0,47.0,30.31,SSW,201,0.0,2.0,87,0.04,,,-99.99,,2013-03-16 19:42:00,
2013-03-16 12:52:00,51.0,47.0,30.31,SSW,201,0.0,2.0,87,0.04,,,-99.99,,2013-03-16 19:52:00,
2013-03-16 13:02:00,52.0,49.0,30.30,SSW,211,1.0,4.0,88,0.05,,,-99.99,,2013-03-16 20:02:00,
2013-03-16 13:12:00,52.0,49.0,30.30,SSW,211,1.0,4.0,88,0.05,,,-99.99,,2013-03-16 20:12:00,
2013-03-16 13:21:00,52.0,49.0,30.30,SSW,211,1.0,4.0,88,0.05,,,-99.99,,2013-03-16 20:21:00,
2013-03-16 13:32:00,51.0,47.0,30.29,South,187,2.0,3.0,87,0.03,,,-99.99,,2013-03-16 20:32:00,
2013-03-16 13:42:00,51.0,47.0,30.29,South,187,2.0,3.0,87,0.03,,,-99.99,,2013-03-16 20:42:00,
2013-03-16 13:52:00,51.0,47.0,30.29,South,187,2.0,3.0,87,0.03,,,-99.99,,2013-03-16 20:52:00,
2013-03-16 14:02:00,51.0,47.0,30.29,SW,218,0.0,5.0,87,0.03,,,-99.99,,2013-03-16 21:02:00,
2013-03-16 14:12:00,51.0,47.0,30.29,SW,218,0.0,5.0,87,0.03,,,-99.99,,2013-03-16 21:12:00,
2013-03-16 14:22:00,51.0,47.0,30.29,SW,218,0.0,5.0,87,0.03,,,-99.99,,2013-03-16 21:22:00,
2013-03-16 14:32:00,52.0,48.0,30.28,SSE,154,2.0,9.0,86,0.04,,,-99.99,,2013-03-16 21:32:00,
2013-03-16 14:43:00,52.0,48.0,30.28,SSE,154,2.0,9.0,86,0.04,,,-99.99,,2013-03-16 21:43:00,
2013-03-16 14:52:00,52.0,48.0,30.28,SSE,154,2.0,9.0,86,0.04,,,-99.99,,2013-03-16 21:52:00,
2013-03-16 15:03:00,51.0,47.0,30.26,SSE,153,0.0,6.0,86,0.02,,,-99.99,,2013-03-16 22:03:00,
2013-03-16 15:12:00,51.0,47.0,30.26,SSE,153,0.0,6.0,86,0.02,,,-99.99,,2013-03-16 22:12:00,
2013-03-16 15:22:00,52.0,48.0,30.26,SE,127,1.0,4.0,85,0.01,,,-99.99,,2013-03-16 22:22:00,
2013-03-16 15:32:00,52.0,48.0,30.26,SE,127,1.0,4.0,85,0.01,,,-99.99,,2013-03-16 22:32:00,
2013-03-16 15:42:00,52.0,48.0,30.26,SE,127,1.0,4.0,85,0.01,,,-99.99,,2013-03-16 22:42:00,
2013-03-16 15:52:00,52.0,48.0,30.26,SE,127,1.0,4.0,85,0.01,,,-99.99,,2013-03-16 22:52:00,
2013-03-16 16:01:00,51.0,47.0,30.26,SSW,213,3.0,4.0,87,0.04,,,-99.99,,2013-03-16 23:01:00,
2013-03-16 16:12:00,51.0,47.0,30.26,SSW,213,3.0,4.0,87,0.04,,,-99.99,,2013-03-16 23:12:00,
2013-03-16 16:22:00,51.0,47.0,30.26,SSW,213,3.0,4.0,87,0.04,,,-99.99,,2013-03-16 23:22:00,
2013-03-16 16:32:00,50.0,47.0,30.25,SSE,147,0.0,5.0,89,0.12,,,-99.99,,2013-03-16 23:32:00,
2013-03-16 16:42:00,50.0,47.0,30.25,SSE,147,0.0,5.0,89,0.12,,,-99.99,,2013-03-16 23:42:00,
2013-03-16 16:52:00,50.0,47.0,30.25,SSE,147,0.0,5.0,89,0.12,,,-99.99,,2013-03-16 23:52:00,
2013-03-16 17:01:00,50.0,47.0,30.25,SSE,165,0.0,4.0,91,0.13,,,-99.99,,2013-03-17 00:01:00,
2013-03-16 17:12:00,50.0,47.0,30.25,SSE,165,0.0,4.0,91,0.13,,,-99.99,,2013-03-17 00:12:00,
2013-03-16 17:22:00,50.0,47.0,30.25,SSE,165,0.0,4.0,91,0.13,,,-99.99,,2013-03-17 00:22:00,
2013-03-16 17:32:00,50.0,47.0,30.26,SW,225,0.0,2.0,91,0.09,,,-99.99,,2013-03-17 00:32:00,
2013-03-16 17:42:00,50.0,47.0,30.26,SW,225,0.0,2.0,91,0.09,,,-99.99,,2013-03-17 00:42:00,
2013-03-16 17:52:00,50.0,47.0,30.26,SW,225,0.0,2.0,91,0.09,,,-99.99,,2013-03-17 00:52:00,
2013-03-16 18:02:00,50.0,47.0,30.25,SE,126,1.0,6.0,91,0.05,,,-99.99,,2013-03-17 01:02:00,
2013-03-16 18:12:00,50.0,47.0,30.25,SE,126,1.0,6.0,91,0.05,,,-99.99,,2013-03-17 01:12:00,
2013-03-16 18:22:00,50.0,47.0,30.25,SE,126,1.0,6.0,91,0.05,,,-99.99,,2013-03-17 01:22:00,
2013-03-16 18:32:00,50.0,47.0,30.24,SE,142,2.0,7.0,91,0.10,,,-99.99,,2013-03-17 01:32:00,
2013-03-16 18:42:00,50.0,47.0,30.24,SE,142,2.0,7.0,91,0.10,,,-99.99,,2013-03-17 01:42:00,
2013-03-16 18:53:00,50.0,47.0,30.24,SE,142,2.0,7.0,91,0.10,,,-99.99,,2013-03-17 01:53:00,
2013-03-16 19:02:00,50.0,47.0,30.25,SSE,148,1.0,2.0,91,0.08,,,-99.99,,2013-03-17 02:02:00,
2013-03-16 19:12:00,50.0,47.0,30.25,SSE,148,1.0,2.0,91,0.08,,,-99.99,,2013-03-17 02:12:00,
2013-03-16 19:22:00,50.0,47.0,30.25,SSE,148,1.0,2.0,91,0.08,,,-99.99,,2013-03-17 02:22:00,
2013-03-16 19:32:00,49.0,46.0,30.25,WNW,284,2.0,2.0,91,0.02,,,-99.99,,2013-03-17 02:32:00,
2013-03-16 19:43:00,49.0,46.0,30.25,WNW,284,2.0,2.0,91,0.02,,,-99.99,,2013-03-17 02:43:00,
2013-03-16 19:52:00,49.0,46.0,30.25,WNW,284,2.0,2.0,91,0.02,,,-99.99,,2013-03-17 02:52:00,
2013-03-16 20:02:00,49.0,46.0,30.24,WNW,291,0.0,6.0,91,0.06,,,-99.99,,2013-03-17 03:02:00,
2013-03-16 20:12:00,49.0,46.0,30.24,WNW,291,0.0,6.0,91,0.06,,,-99.99,,2013-03-17 03:12:00,
2013-03-16 20:22:00,49.0,46.0,30.24,WNW,291,0.0,6.0,91,0.06,,,-99.99,,2013-03-17 03:22:00,
2013-03-16 20:33:00,49.0,46.0,30.26,SSW,198,1.0,10.0,91,0.08,,,-99.99,,2013-03-17 03:33:00,
2013-03-16 20:43:00,49.0,46.0,30.26,SSW,198,1.0,10.0,91,0.08,,,-99.99,,2013-03-17 03:43:00,
2013-03-16 20:53:00,49.0,46.0,30.26,SSW,198,1.0,10.0,91,0.08,,,-99.99,,2013-03-17 03:53:00,
2013-03-16 21:02:00,48.0,45.0,30.28,NE,43,0.0,2.0,91,0.04,,,-99.99,,2013-03-17 04:02:00,
2013-03-16 21:12:00,48.0,45.0,30.28,NE,43,0.0,2.0,91,0.04,,,-99.99,,2013-03-17 04:12:00,
2013-03-16 21:23:00,48.0,45.0,30.28,NE,43,0.0,2.0,91,0.04,,,-99.99,,2013-03-17 04:23:00,
2013-03-16 21:32:00,47.0,45.0,30.29,ESE,102,1.0,3.0,91,0.03,,,-99.99,,2013-03-17 04:32:00,
2013-03-16 21:43:00,47.0,45.0,30.29,ESE,102,1.0,3.0,91,0.03,,,-99.99,,2013-03-17 04:43:00,
2013-03-16 21:53:00,47.0,45.0,30.29,ESE,102,1.0,3.0,91,0.03,,,-99.99,,2013-03-17 04:53:00,
2013-03-16 22:02:00,47.0,45.0,30.30,East,101,0.0,3.0,91,0.01,,,-99.99,,2013-03-17 05:02:00,
2013-03-16 22:12:00,47.0,45.0,30.30,East,101,0.0,3.0,91,0.01,,,-99.99,,2013-03-17 05:12:00,
2013-03-16 22:22:00,47.0,45.0,30.31,SSW,213,1.0,2.0,92,0.00,,,-99.99,,2013-03-17 05:22:00,
2013-03-16 22:32:00,47.0,45.0,30.31,SSW,213,1.0,2.0,92,0.00,,,-99.99,,2013-03-17 05:32:00,
2013-03-16 22:42:00,47.0,45.0,30.31,SSW,213,1.0,2.0,92,0.00,,,-99.99,,2013-03-17 05:42:00,
2013-03-16 22:52:00,47.0,45.0,30.31,SSW,213,1.0,2.0,92,0.00,,,-99.99,,2013-03-17 05:52:00,
2013-03-16 23:01:00,46.0,44.0,30.32,SSW,198,0.0,2.0,91,0.01,,,-99.99,,2013-03-17 06:01:00,
2013-03-16 23:12:00,46.0,44.0,30.32,SSW,198,0.0,2.0,91,0.01,,,-99.99,,2013-03-17 06:12:00,
2013-03-16 23:22:00,46.0,44.0,30.32,SSW,198,0.0,2.0,91,0.01,,,-99.99,,2013-03-17 06:22:00,
2013-03-16 23:32:00,45.0,43.0,30.34,SSE,148,1.0,4.0,91,0.01,,,-99.99,,2013-03-17 06:32:00,
2013-03-16 23:42:00,45.0,43.0,30.34,SSE,148,1.0,4.0,91,0.01,,,-99.99,,2013-03-17 06:42:00,
2013-03-16 23:52:00,45.0,43.0,30.34,SSE,148,1.0,4.0,91,0.01,,,-99.99,,2013-03-17 06:52:00,